Tracking 34406 objects as of 15-Jun-2026
HD Live streaming from Space Station
objects crossing your sky now

NAVSTAR 64 (USA 206)

Track NAVSTAR 64 (USA 206) now!
NAVSTAR 64 (USA 206) is classified as:


NORAD ID: 35752
Int'l Code: 2009-043A
Perigee: 20,047.3 km
Apogee: 20,333.1 km
Inclination: 56.2 °
Period: 718.0 minutes
Semi major axis: 26561 km
RCS: 6.3 m2 (large)
Launch date: August 17, 2009
Source: United States (US)
Launch site: AIR FORCE EASTERN TEST RANGE (AFETR)
PRN: 5
Your satellite tracking list
Your tracking list is empty




NASA's NSSDC Master Catalog

Two Line Element Set (TLE):
1 35752U 09043A   26166.28418941 -.00000068  00000-0  00000-0 0  9991
2 35752  56.2090  27.5262 0053807  83.2051  29.4575  2.00554221123326
Source of the keplerian elements: AFSPC